This is the latest recevied weather packets stored in our database for station/object KY0TEQ-13. If no packets are shown the sender has not sent any weather packets the latest 10 day(s).
| Time | Temp. | Humidity | Pressure | Rain* | Wind** | Luminosity | Snow |
|---|---|---|---|---|---|---|---|
| 1777865796 | 12.78° C | 31% | 1300.2 hPa | 0 mm | - | 0 W/m² | - |
| 1777865493 | 12.22° C | 36% | 1300.4 hPa | 0 mm | - | 0 W/m² | - |
| 1777865190 | 12.22° C | 33% | 1300 hPa | 0 mm | - | 0 W/m² | - |
| 1777864887 | 12.22° C | 31% | 1300.2 hPa | 0 mm | - | 0 W/m² | - |
| 1777864584 | 12.78° C | 32% | 1300.1 hPa | 0 mm | - | 0 W/m² | - |
| 1777864280 | 12.78° C | 30% | 1300 hPa | 0 mm | - | 0 W/m² | - |
| 1777863977 | 12.78° C | 29% | 1300.4 hPa | 0 mm | - | 0 W/m² | - |
| 1777863674 | 13.33° C | 27% | 1300.2 hPa | 0 mm | - | 0 W/m² | - |
| 1777863370 | 13.33° C | 26% | 1300.1 hPa | 0 mm | - | 0 W/m² | - |
| 1777863068 | 13.33° C | 27% | 1299.9 hPa | 0 mm | - | 0 W/m² | - |
| 1777862764 | 13.89° C | 26% | 1300 hPa | 0 mm | - | 0 W/m² | - |
| 1777862462 | 13.33° C | 26% | 1300.4 hPa | 0 mm | - | 0 W/m² | - |
| 1777862158 | 12.78° C | 29% | 1300.1 hPa | 0 mm | - | 0 W/m² | - |
| 1777861854 | 13.33° C | 27% | 1300 hPa | 0 mm | - | 0 W/m² | - |
| 1777861550 | 13.33° C | 26% | 1300 hPa | 0 mm | - | 0 W/m² | - |
| 1777861247 | 13.33° C | 26% | 1299.8 hPa | 0 mm | - | 0 W/m² | - |
| 1777860944 | 13.89° C | 26% | 1299.9 hPa | 0 mm | - | 0 W/m² | - |
| 1777860641 | 13.89° C | 26% | 1299.9 hPa | 0 mm | - | 1 W/m² | - |
| 1777860338 | 14.44° C | 25% | 1300 hPa | 0 mm | - | 2 W/m² | - |
| 1777860034 | 13.89° C | 25% | 1300 hPa | 0 mm | - | 3 W/m² | - |
| 1777859730 | 13.89° C | 26% | 1299.9 hPa | 0 mm | - | 5 W/m² | - |
| 1777859426 | 14.44° C | 25% | 1299.9 hPa | 0 mm | - | 7 W/m² | - |
| 1777859122 | 15.56° C | 25% | 1299.9 hPa | 0 mm | - | 9 W/m² | - |
| 1777858820 | 15.56° C | 22% | 1300 hPa | 0 mm | - | 13 W/m² | - |
| 1777858518 | 15.56° C | 23% | 1299.9 hPa | 0 mm | - | 17 W/m² | - |
* Rain latest hour (hover to see other rain measurements)
** Current wind speed in m/s (hover to see current wind gust speed)